Terug naar catalogus

SKYSAT C11

ActiefWetenschapSSO
NORAD 42987·PAYLOAD·🇺🇸 United States

Gelanceerd Oct 31, 2017 vanaf Vandenberg Space Force Base

Loading…

Volgende Passages (komende 24 uur)

TLE

VersSource: Space-Track

Epoch: Sep 14, 2026, 04:59 UTC

1 42987U 17068A   26257.20826679  .00029925  00000-0  33563-3 0  9994
2 42987  97.4460  50.2899 0000956  62.2042 297.9313 15.62622424497122

Volg SKYSAT C11 in realtime met AllMySat

Download on the App Store